Terminal Aerodrome Forecast
Issued by NWS

Home | Current Version | Previous Version | Graphics & Text | Print | Product List | Glossary On
Versions: 1 2 3 4 5 6 7 8 9 10 11 12 13 14 15 16 17 18 19 20 21 22 23
000
FTUS42 KMHX 030620 AAA
TAFOAJ
TAF AMD
KOAJ 030620Z 0306/0406 00000KT P6SM BKN025
     FM030900 00000KT 5SM BR BKN025
     FM031200 21005KT P6SM VCSH SCT050 OVC100
     FM031600 21010KT P6SM VCTS OVC050CB
     FM040000 21005KT P6SM VCSH OVC050
      AMD LTD TO CLD VIS AND WIND=

USA.gov is the U.S. government's official web portal to all federal, state and local government web resources and services.